Location: ??????
(55.7522°N, 37.6156°E)
Time: 17:50:22
(UTC+00:00)

Cosmos 1025 Rocket - Pass Details

Date: 14 June 2025
Orbit: 588 x 609 km, 82.5° (Epoch: 12 July)

Event Time Altitude Azimuth Distance (km) Brightness Sun altitude
Exits shadow 23:00:20 - 176° (S) 2,011 5.1 -8.6°
Reaches altitude 10° 23:00:34 10° 175° (S) 1,916 5.0 -8.6°
Maximum altitude 23:04:43 58° 97° (E) 696 3.4 -8.4°
Drops below altitude 10° 23:08:56 10° 18° (NNE) 1,939 7.3 -8.2°
Sets 23:11:10 0° 15° (NNE) 2,849 8.7 -8.1°
